Location: Pardubice
(50.0330°N, 15.7830°E)
Time: 17:35:31
(UTC+02:00)

Vanguard 1 Rocket - All Passes

Search period start: 04 October 2024 00:00
Search period end: 14 October 2024 00:00
Orbit: 650 x 4218 km, 34.3° (Epoch: 04 October)

Date Brightness Start Highest point End Pass type
(mag) Time Alt. Az. Time Alt. Az. Time Alt. Az.
04 Oct - 01:54:11 10° SW 02:00:43 31° SSE 02:11:44 10° ESE visible
04 Oct - 04:17:26 10° WSW 04:26:18 32° S 04:41:09 10° SE visible
04 Oct - 06:44:03 10° WSW 06:53:14 19° SSW 07:05:42 10° S daylight
05 Oct - 00:43:45 10° SSW 00:48:54 24° SSE 00:56:43 10° ESE visible
05 Oct - 03:06:02 10° WSW 03:13:32 32° S 03:26:22 10° SE visible
05 Oct - 05:30:48 10° WSW 05:39:51 24° SSW 05:53:28 10° SSE visible
05 Oct - 23:34:08 10° S 23:37:27 15° SSE 23:41:43 10° ESE night (unlit)
06 Oct - 01:55:03 10° SW 02:01:15 30° S 02:11:32 10° ESE visible
06 Oct - 04:18:38 10° WSW 04:26:46 27° SSW 04:39:53 10° SE visible
06 Oct - 06:47:00 10° WSW 06:53:31 14° SSW 07:01:32 10° S daylight
07 Oct - 00:44:27 10° SW 00:49:23 24° SSE 00:56:52 10° ESE visible
07 Oct - 03:07:06 10° WSW 03:14:06 28° S 03:25:38 10° SE visible
07 Oct - 05:32:39 10° WSW 05:40:17 19° SSW 05:50:57 10° S visible
07 Oct - 23:34:27 10° SSW 23:37:54 16° SSE 23:42:21 10° ESE night (unlit)
08 Oct - 01:56:00 10° SW 02:01:49 27° S 02:11:13 10° SE visible
08 Oct - 04:20:04 10° WSW 04:27:18 22° SSW 04:38:16 10° SSE visible
09 Oct - 00:45:15 10° SW 00:49:57 23° SSE 00:56:56 10° ESE visible
09 Oct - 03:08:18 10° WSW 03:14:41 24° S 03:24:40 10° SE visible
09 Oct - 05:35:26 10° SW 05:40:44 13° SSW 05:47:20 10° S visible
09 Oct - 23:34:58 10° SSW 23:38:24 17° SSE 23:42:51 10° ESE night (unlit)
10 Oct - 01:57:04 10° SW 02:02:27 24° S 02:10:46 10° SE visible
10 Oct - 04:21:53 10° WSW 04:27:51 17° SSW 04:36:08 10° SSE visible
10 Oct - 22:26:24 10° SSE 22:27:02 10° SSE 22:27:41 10° SE night (unlit)
11 Oct - 00:46:09 10° SW 00:50:34 22° S 00:56:55 10° SE night (unlit)
11 Oct - 03:09:44 10° SW 03:15:18 20° SSW 03:23:25 10° SSE visible
11 Oct - 23:35:38 10° SSW 23:38:57 17° SSE 23:43:13 10° SE night (unlit)
12 Oct - 01:58:15 10° SW 02:03:05 21° S 02:10:08 10° SE visible
12 Oct - 04:24:46 10° SW 04:28:26 12° SSW 04:32:51 10° S visible
12 Oct - 22:25:56 10° S 22:27:32 11° SSE 22:29:16 10° SE night (unlit)
13 Oct - 00:47:10 10° SW 00:51:11 19° S 00:56:45 10° SE night (unlit)
13 Oct - 03:11:37 10° SW 03:15:56 15° SSW 03:21:37 10° SSE visible
13 Oct - 23:36:25 10° SSW 23:39:33 16° S 23:43:29 10° SE night (unlit)
